Language: 


Des rapports , des résumés tant et plus, au choix de chacun....


Données statistiques de la station
Quotidien Rapport Juillet 19, 2017 Unités:  Anglais    Métrique   les deux
« Précédent Jour
Suivant Jour »
Quotidien Hebdomadaire Mensuel Annuel Actuel
  Haut: Bas: Moyen:
Température: 92.5 °F 66.6 °F 77.2 °F
Pt de rosée: 71.6 °F 57.2 °F 63.3 °F
Humidité: 88 % 34 % 64 %
Vitesse du vent: 18.8 mph 0 mph 4.4 mph
Rafales: 21.5 mph - -
Vent:- - South
Pression: 29.9 in 29.7 in -
Précipitation: 0 in    
Historical Graphs
 
 
Données statistiques pour Juillet 19, 2017
Heure Température Point de rosée Pression Vent Vitesse du vent Refales Humidité Pluie (taux horaire)
00:00 74.1 °F 57.2 °F 29.9 in East 4.9 mph 8.1 mph 56 % 0 in
00:05 74.1 °F 57.2 °F 29.9 in ENE 5.6 mph 8.1 mph 57 % 0 in
00:10 74.1 °F 57.2 °F 29.9 in ENE 6.3 mph 6.3 mph 57 % 0 in
00:15 73.9 °F 57.2 °F 29.9 in ENE 6.3 mph 6.3 mph 56 % 0 in
00:20 73.8 °F 57.2 °F 29.9 in SE 6.5 mph 6.5 mph 57 % 0 in
00:25 73.6 °F 57.2 °F 29.8 in Calm   6.5 mph 57 % 0 in
00:30 73.2 °F 57.2 °F 29.8 in ENE 3.6 mph 7.4 mph 58 % 0 in
00:35 73 °F 57.2 °F 29.8 in East 2 mph 7.4 mph 58 % 0 in
00:40 72.9 °F 57.2 °F 29.8 in ENE 4.9 mph 4.9 mph 58 % 0 in
00:45 72.5 °F 57.2 °F 29.8 in East 5.6 mph 5.6 mph 59 % 0 in
00:50 72.3 °F 57.2 °F 29.8 in ENE 1.6 mph 5.6 mph 59 % 0 in
00:55 72.1 °F 57.2 °F 29.8 in ENE 2.7 mph 6 mph 59 % 0 in
01:00 72 °F 57.2 °F 29.8 in NE 4 mph 6 mph 60 % 0 in
01:05 72 °F 57.2 °F 29.8 in NE 3.8 mph 4.3 mph 60 % 0 in
01:10 71.8 °F 57.2 °F 29.8 in NE 3.8 mph 4.3 mph 60 % 0 in
01:15 71.6 °F 57.2 °F 29.8 in ENE 3.4 mph 3.8 mph 60 % 0 in
01:21 71.2 °F 57.2 °F 29.8 in NE 3.1 mph 3.8 mph 61 % 0 in
01:26 71.2 °F 57.2 °F 29.8 in ENE 6.3 mph 6.3 mph 62 % 0 in
01:31 70.9 °F 57.2 °F 29.8 in ENE 5.4 mph 6.3 mph 62 % 0 in
01:36 70.9 °F 57.2 °F 29.8 in NE 6.3 mph 6.3 mph 62 % 0 in
01:41 70.7 °F 57.2 °F 29.8 in NE 6 mph 6.3 mph 63 % 0 in
01:46 70.5 °F 57.2 °F 29.8 in ENE 4.5 mph 6.3 mph 63 % 0 in
01:51 70.5 °F 57.2 °F 29.8 in ENE 4.5 mph 6 mph 63 % 0 in
01:56 70.5 °F 57.2 °F 29.8 in Calm   4.5 mph 64 % 0 in
02:01 70.3 °F 57.2 °F 29.8 in ENE 2 mph 4.5 mph 64 % 0 in
02:06 70.3 °F 57.2 °F 29.8 in East 2.5 mph 3.4 mph 64 % 0 in
02:11 70.2 °F 57.2 °F 29.8 in NE 1.6 mph 3.4 mph 64 % 0 in
02:16 70.2 °F 59 °F 29.8 in NE 5.4 mph 5.4 mph 65 % 0 in
02:21 70 °F 57.2 °F 29.8 in ENE 4.9 mph 5.6 mph 65 % 0 in
02:26 70 °F 57.2 °F 29.8 in NE 3.6 mph 6 mph 65 % 0 in
02:31 70 °F 57.2 °F 29.8 in Calm   6 mph 66 % 0 in
02:36 69.8 °F 57.2 °F 29.8 in ENE 0.9 mph 3.6 mph 66 % 0 in
02:41 69.8 °F 57.2 °F 29.8 in Calm   3.8 mph 66 % 0 in
02:46 69.8 °F 57.2 °F 29.8 in East 1.6 mph 3.8 mph 66 % 0 in
02:51 69.6 °F 59 °F 29.8 in ENE 2.2 mph 2.9 mph 67 % 0 in
02:57 69.4 °F 59 °F 29.8 in East 2.7 mph 2.9 mph 68 % 0 in
03:02 69.3 °F 59 °F 29.8 in East 4.3 mph 4.3 mph 68 % 0 in
03:07 69.1 °F 59 °F 29.8 in Calm   5.6 mph 68 % 0 in
03:12 69.1 °F 59 °F 29.8 in East 4.3 mph 5.6 mph 69 % 0 in
03:17 68.9 °F 59 °F 29.8 in Calm   4.3 mph 69 % 0 in
03:22 68.9 °F 59 °F 29.8 in Calm   1.3 mph 70 % 0 in
03:27 68.9 °F 59 °F 29.8 in ENE 3.4 mph 3.4 mph 70 % 0 in
03:32 68.9 °F 59 °F 29.8 in ESE 3.4 mph 3.4 mph 70 % 0 in
03:37 68.7 °F 59 °F 29.8 in Calm   3.4 mph 70 % 0 in
03:42 68.9 °F 59 °F 29.8 in Calm   3.4 mph 71 % 0 in
03:47 68.9 °F 59 °F 29.8 in Calm   3.8 mph 71 % 0 in
03:52 69.1 °F 59 °F 29.8 in ESE 0.9 mph 3.8 mph 71 % 0 in
03:57 69.1 °F 59 °F 29.7 in Calm   3.4 mph 71 % 0 in
04:02 69.1 °F 60.8 °F 29.7 in Calm   2.7 mph 72 % 0 in
04:07 68.9 °F 59 °F 29.7 in Calm   2.7 mph 71 % 0 in
04:12 68.7 °F 59 °F 29.7 in Calm   2.9 mph 72 % 0 in
04:17 68.7 °F 59 °F 29.7 in Calm   3.4 mph 72 % 0 in
04:22 68.7 °F 59 °F 29.7 in Calm   3.4 mph 73 % 0 in
04:27 68.7 °F 59 °F 29.7 in Calm     73 % 0 in
04:33 68.7 °F 59 °F 29.7 in Calm     73 % 0 in
04:38 68.4 °F 60.8 °F 29.7 in Calm   3.6 mph 74 % 0 in
04:43 68.5 °F 60.8 °F 29.7 in Calm   3.6 mph 75 % 0 in
04:48 68.7 °F 60.8 °F 29.7 in Calm     75 % 0 in
04:53 68.9 °F 62.6 °F 29.7 in ESE 3.6 mph 6.5 mph 77 % 0 in
04:58 69.3 °F 62.6 °F 29.7 in SE 3.8 mph 6.5 mph 77 % 0 in
05:03 69.6 °F 62.6 °F 29.7 in Calm   4.3 mph 77 % 0 in
05:08 69.6 °F 62.6 °F 29.7 in Calm   4.3 mph 77 % 0 in
05:13 69.6 °F 62.6 °F 29.7 in ESE 2.2 mph 2.2 mph 76 % 0 in
05:18 69.6 °F 62.6 °F 29.7 in Calm   2.2 mph 76 % 0 in
05:23 69.6 °F 62.6 °F 29.7 in ESE 3.4 mph 3.4 mph 76 % 0 in
05:28 69.6 °F 62.6 °F 29.7 in Calm   3.4 mph 77 % 0 in
05:33 69.6 °F 62.6 °F 29.7 in ESE 3.8 mph 3.8 mph 77 % 0 in
05:38 69.6 °F 62.6 °F 29.7 in East 3.8 mph 3.8 mph 77 % 0 in
05:43 69.6 °F 62.6 °F 29.7 in Calm   4.9 mph 77 % 0 in
05:48 69.6 °F 62.6 °F 29.7 in Calm   4.9 mph 77 % 0 in
05:53 69.6 °F 62.6 °F 29.7 in Calm   2.2 mph 77 % 0 in
05:58 69.4 °F 62.6 °F 29.7 in Calm     77 % 0 in
06:03 69.3 °F 62.6 °F 29.7 in Calm     77 % 0 in
06:09 69.3 °F 62.6 °F 29.7 in Calm   3.4 mph 78 % 0 in
06:14 69.3 °F 62.6 °F 29.7 in SE 1.3 mph 3.4 mph 78 % 0 in
06:19 69.3 °F 62.6 °F 29.7 in Calm   2.9 mph 78 % 0 in
06:24 69.4 °F 62.6 °F 29.7 in Calm   1.3 mph 78 % 0 in
06:29 69.4 °F 62.6 °F 29.7 in SE 1.3 mph 1.3 mph 77 % 0 in
06:34 69.8 °F 62.6 °F 29.7 in Calm   1.3 mph 77 % 0 in
06:39 70 °F 62.6 °F 29.7 in Calm   1.3 mph 77 % 0 in
06:44 70 °F 62.6 °F 29.7 in Calm     77 % 0 in
06:49 70.3 °F 62.6 °F 29.7 in Calm     77 % 0 in
06:54 70.3 °F 62.6 °F 29.7 in SE 3.6 mph 3.6 mph 77 % 0 in
06:59 70.7 °F 62.6 °F 29.7 in ESE 1.6 mph 3.6 mph 76 % 0 in
07:04 71.1 °F 62.6 °F 29.7 in SE 3.8 mph 5.8 mph 76 % 0 in
07:09 71.4 °F 64.4 °F 29.7 in Calm   5.8 mph 76 % 0 in
07:14 72 °F 64.4 °F 29.7 in SE 0.9 mph 5.4 mph 75 % 0 in
07:19 72.3 °F 64.4 °F 29.7 in Calm   5.4 mph 74 % 0 in
07:24 72.5 °F 64.4 °F 29.7 in Calm   6.3 mph 73 % 0 in
07:29 72.5 °F 64.4 °F 29.7 in Calm   6.3 mph 73 % 0 in
07:34 72.9 °F 64.4 °F 29.7 in SSE 0.9 mph 5.6 mph 72 % 0 in
07:39 73.6 °F 64.4 °F 29.7 in South 3.4 mph 5.6 mph 72 % 0 in
07:45 73.9 °F 64.4 °F 29.7 in Calm   4.9 mph 70 % 0 in
07:50 74.5 °F 64.4 °F 29.7 in SE 2 mph 6 mph 71 % 0 in
07:55 75 °F 64.4 °F 29.7 in South 2.5 mph 7.4 mph 70 % 0 in
08:00 75.6 °F 64.4 °F 29.7 in SSE 4.3 mph 8.5 mph 68 % 0 in
08:05 75.9 °F 64.4 °F 29.7 in SSW 6.5 mph 8.5 mph 67 % 0 in
08:10 76.1 °F 64.4 °F 29.7 in South 2.5 mph 7.6 mph 67 % 0 in
08:15 76.6 °F 64.4 °F 29.7 in SSW 4.3 mph 6.5 mph 66 % 0 in
08:20 77.5 °F 66.2 °F 29.7 in South 2.7 mph 6.5 mph 66 % 0 in
08:25 77.2 °F 64.4 °F 29.7 in SW 6 mph 8.7 mph 64 % 0 in
08:30 77 °F 64.4 °F 29.7 in South 4.9 mph 8.7 mph 64 % 0 in
08:35 77.2 °F 64.4 °F 29.7 in West 5.4 mph 9.4 mph 64 % 0 in
08:40 77.2 °F 64.4 °F 29.7 in SSW 5.6 mph 9.4 mph 64 % 0 in
08:45 77.5 °F 64.4 °F 29.7 in South 7.8 mph 10.1 mph 64 % 0 in
08:50 78.3 °F 66.2 °F 29.7 in SSW 3.1 mph 10.1 mph 64 % 0 in
08:55 78.4 °F 66.2 °F 29.7 in South 5.8 mph 10.1 mph 64 % 0 in
08:56 78.4 °F 66.2 °F 29.7 in South 3.4 mph 10.1 mph 64 % 0 in
09:01 78.4 °F 64.4 °F 29.7 in SW 3.4 mph 9.4 mph 63 % 0 in
09:06 78.1 °F 64.4 °F 29.7 in South 6.9 mph 8.9 mph 63 % 0 in
09:11 78.3 °F 64.4 °F 29.7 in SSW 7.4 mph 9.8 mph 63 % 0 in
09:16 78.8 °F 66.2 °F 29.7 in SW 3.1 mph 9.8 mph 64 % 0 in
09:21 79 °F 66.2 °F 29.7 in SSW 4.3 mph 8.1 mph 63 % 0 in
09:26 79 °F 66.2 °F 29.7 in SSW 7.6 mph 9.6 mph 63 % 0 in
09:31 78.8 °F 64.4 °F 29.7 in SW 8.7 mph 9.6 mph 62 % 0 in
09:36 78.8 °F 66.2 °F 29.7 in SW 5.6 mph 9.4 mph 63 % 0 in
09:41 78.8 °F 66.2 °F 29.7 in SSW 2.5 mph 8.7 mph 63 % 0 in
09:46 79 °F 66.2 °F 29.7 in SSW 6.5 mph 8.7 mph 63 % 0 in
09:51 79.2 °F 66.2 °F 29.7 in SSW 5.8 mph 6.5 mph 64 % 0 in
09:56 79.3 °F 66.2 °F 29.7 in SW 6 mph 6.3 mph 63 % 0 in
10:01 79.5 °F 66.2 °F 29.7 in Calm   6.3 mph 64 % 0 in
10:06 79.9 °F 68 °F 29.7 in Calm   6 mph 64 % 0 in
10:11 79.7 °F 66.2 °F 29.7 in Calm   4.7 mph 63 % 0 in
10:16 79.7 °F 68 °F 29.7 in Calm   4.7 mph 64 % 0 in
10:21 79.7 °F 68 °F 29.7 in West 3.1 mph 6.5 mph 64 % 0 in
10:26 79.5 °F 68 °F 29.8 in SW 3.4 mph 6.5 mph 66 % 0 in
10:31 79.3 °F 68 °F 29.8 in SSW 7.4 mph 7.4 mph 65 % 0 in
10:36 79.3 °F 68 °F 29.8 in SSE 7.4 mph 7.4 mph 65 % 0 in
10:41 79.3 °F 66.2 °F 29.7 in SSE 11.4 mph 11.4 mph 64 % 0 in
10:46 79.5 °F 68 °F 29.7 in SSE 4.9 mph 11.4 mph 65 % 0 in
10:51 79.7 °F 68 °F 29.7 in SSE 4.7 mph 8.5 mph 64 % 0 in
10:56 79.9 °F 68 °F 29.7 in SE 4.9 mph 8.5 mph 64 % 0 in
11:01 80.2 °F 68 °F 29.7 in SSE 2 mph 6 mph 64 % 0 in
11:06 80.8 °F 68 °F 29.7 in SSW 3.4 mph 7.4 mph 63 % 0 in
11:11 82.4 °F 68 °F 29.7 in SSE 4.3 mph 9.4 mph 61 % 0 in
11:16 82.9 °F 68 °F 29.7 in South 5.4 mph 9.4 mph 60 % 0 in
11:22 83.8 °F 68 °F 29.7 in South 3.6 mph 9.8 mph 58 % 0 in
11:27 85.6 °F 68 °F 29.7 in South 5.8 mph 9.8 mph 57 % 0 in
11:32 85.5 °F 68 °F 29.7 in SSE 6.5 mph 10.1 mph 54 % 0 in
11:37 86.7 °F 68 °F 29.7 in South 12.3 mph 12.3 mph 52 % 0 in
11:42 87.3 °F 68 °F 29.7 in SSE 4.9 mph 12.3 mph 52 % 0 in
11:47 87.6 °F 68 °F 29.7 in South 5.4 mph 10.3 mph 50 % 0 in
11:52 87.3 °F 66.2 °F 29.7 in SSW 3.8 mph 10.5 mph 49 % 0 in
11:57 87.4 °F 66.2 °F 29.7 in SSW 6.9 mph 10.5 mph 48 % 0 in
12:02 87.1 °F 66.2 °F 29.7 in SW 6.9 mph 12.3 mph 48 % 0 in
12:04 87.3 °F 66.2 °F 29.7 in South 5.8 mph 12.3 mph 49 % 0 in
12:09 87.3 °F 66.2 °F 29.7 in SSW 3.1 mph 12.3 mph 49 % 0 in
12:14 86.5 °F 66.2 °F 29.7 in SW 6.3 mph 10.7 mph 50 % 0 in
12:19 85.6 °F 64.4 °F 29.7 in SSW 5.6 mph 10.7 mph 50 % 0 in
12:24 85.5 °F 66.2 °F 29.7 in SSW 8.7 mph 12.8 mph 52 % 0 in
12:29 85.8 °F 66.2 °F 29.7 in SSW 5.6 mph 12.8 mph 53 % 0 in
12:34 87.1 °F 68 °F 29.7 in South 5.6 mph 14.5 mph 53 % 0 in
12:39 88.2 °F 68 °F 29.7 in South 7.8 mph 14.5 mph 51 % 0 in
12:44 88.7 °F 68 °F 29.7 in South 11.9 mph 11.9 mph 49 % 0 in
12:49 89.1 °F 66.2 °F 29.7 in South 13.6 mph 18.8 mph 46 % 0 in
12:54 89.4 °F 66.2 °F 29.7 in SSW 12.5 mph 18.8 mph 46 % 0 in
12:59 90.3 °F 68 °F 29.7 in South 8.9 mph 12.5 mph 46 % 0 in
13:04 90.5 °F 68 °F 29.7 in SSW 10.3 mph 15.9 mph 45 % 0 in
13:10 89.6 °F 64.4 °F 29.7 in South 15.9 mph 16.6 mph 43 % 0 in
13:15 89.2 °F 64.4 °F 29.7 in WSW 11 mph 16.6 mph 43 % 0 in
13:20 89.8 °F 64.4 °F 29.7 in SSW 13 mph 17.4 mph 42 % 0 in
13:25 89.6 °F 64.4 °F 29.7 in WSW 10.1 mph 17.4 mph 42 % 0 in
13:30 88.9 °F 62.6 °F 29.7 in SW 13 mph 13 mph 42 % 0 in
13:35 89.2 °F 64.4 °F 29.7 in SW 13 mph 13 mph 43 % 0 in
13:40 89.2 °F 62.6 °F 29.7 in SSE 7.4 mph 13 mph 41 % 0 in
13:45 90.3 °F 62.6 °F 29.7 in SSW 10.5 mph 13 mph 40 % 0 in
13:50 90.7 °F 62.6 °F 29.7 in WSW 10.1 mph 19 mph 39 % 0 in
13:55 91 °F 60.8 °F 29.7 in SW 8.7 mph 19 mph 37 % 0 in
14:00 91 °F 59 °F 29.7 in SW 12.1 mph 16.3 mph 35 % 0 in
14:05 89.8 °F 57.2 °F 29.7 in SSW 18.8 mph 18.8 mph 34 % 0 in
14:10 89.6 °F 57.2 °F 29.7 in SW 10.7 mph 18.8 mph 34 % 0 in
14:15 89.2 °F 57.2 °F 29.7 in SW 8.7 mph 18.8 mph 34 % 0 in
14:20 88.9 °F 57.2 °F 29.7 in SSE 5.4 mph 17.7 mph 35 % 0 in
14:25 88.7 °F 57.2 °F 29.7 in WSW 8.1 mph 17.7 mph 35 % 0 in
14:30 88.7 °F 59 °F 29.7 in SSW 8.5 mph 14.8 mph 36 % 0 in
14:35 90 °F 60.8 °F 29.7 in West 7.6 mph 14.8 mph 36 % 0 in
14:40 89.4 °F 59 °F 29.7 in SSW 5.4 mph 13.4 mph 36 % 0 in
14:45 90.5 °F 59 °F 29.7 in SW 10.5 mph 17 mph 35 % 0 in
14:50 92.1 °F 60.8 °F 29.7 in SSW 7.8 mph 17 mph 36 % 0 in
14:51 92.1 °F 60.8 °F 29.7 in WSW 15.9 mph 17 mph 35 % 0 in
14:56 90.3 °F 60.8 °F 29.7 in SSW 10.5 mph 17.7 mph 36 % 0 in
15:01 91.2 °F 62.6 °F 29.7 in SSW 12.8 mph 17.7 mph 37 % 0 in
15:06 91.2 °F 62.6 °F 29.7 in West 12.1 mph 19.9 mph 37 % 0 in
15:11 91.4 °F 64.4 °F 29.7 in SSW 10.1 mph 19.9 mph 39 % 0 in
15:16 91.6 °F 64.4 °F 29.7 in South 12.8 mph 17.7 mph 40 % 0 in
15:22 91.6 °F 64.4 °F 29.7 in SW 9.4 mph 16.3 mph 40 % 0 in
15:27 92.5 °F 66.2 °F 29.7 in SSW 5.8 mph 15.2 mph 42 % 0 in
15:32 91.6 °F 64.4 °F 29.7 in WSW 13 mph 16.8 mph 39 % 0 in
15:37 91.8 °F 62.6 °F 29.7 in West 15.2 mph 17 mph 38 % 0 in
15:42 92.3 °F 64.4 °F 29.7 in SSW 6.5 mph 17 mph 40 % 0 in
15:47 91.6 °F 64.4 °F 29.7 in SW 10.5 mph 15.4 mph 39 % 0 in
15:52 91.4 °F 64.4 °F 29.7 in WSW 8.5 mph 15.2 mph 39 % 0 in
15:57 91.2 °F 64.4 °F 29.7 in SSW 13.2 mph 21.5 mph 40 % 0 in
16:02 91.8 °F 64.4 °F 29.7 in SW 10.5 mph 21.5 mph 39 % 0 in
16:07 91.2 °F 64.4 °F 29.7 in WSW 12.5 mph 14.5 mph 40 % 0 in
16:12 91.4 °F 64.4 °F 29.7 in South 12.1 mph 14.5 mph 40 % 0 in
16:17 91.8 °F 64.4 °F 29.7 in SW 8.7 mph 14.5 mph 39 % 0 in
16:22 91.4 °F 62.6 °F 29.7 in South 10.3 mph 12.3 mph 38 % 0 in
16:27 91.9 °F 64.4 °F 29.7 in South 9.8 mph 10.7 mph 39 % 0 in
16:32 90.5 °F 62.6 °F 29.7 in SSW 7.4 mph 13.2 mph 39 % 0 in
16:34 90.1 °F 62.6 °F 29.7 in SW 5.6 mph 13.2 mph 40 % 0 in
16:39 88.2 °F 60.8 °F 29.7 in SW 10.1 mph 14.8 mph 39 % 0 in
16:44 87.3 °F 60.8 °F 29.7 in SSW 7.8 mph 14.8 mph 41 % 0 in
16:49 86.9 °F 60.8 °F 29.7 in WSW 11.4 mph 13.4 mph 42 % 0 in
16:54 86.2 °F 60.8 °F 29.7 in SW 11 mph 13.4 mph 43 % 0 in
16:59 85.8 °F 60.8 °F 29.7 in South 2.5 mph 13.4 mph 44 % 0 in
17:04 85.3 °F 62.6 °F 29.7 in WSW 8.5 mph 12.3 mph 45 % 0 in
17:09 84.4 °F 64.4 °F 29.7 in West 8.5 mph 12.3 mph 51 % 0 in
17:14 83.7 °F 66.2 °F 29.7 in West 10.7 mph 11.9 mph 54 % 0 in
17:19 82.9 °F 66.2 °F 29.7 in WSW 8.9 mph 14.5 mph 56 % 0 in
17:24 82.2 °F 66.2 °F 29.7 in WSW 9.8 mph 14.8 mph 58 % 0 in
17:29 81.5 °F 68 °F 29.7 in West 7.2 mph 14.8 mph 60 % 0 in
17:34 80.8 °F 66.2 °F 29.7 in SSW 6.3 mph 13.2 mph 61 % 0 in
17:35 80.6 °F 68 °F 29.7 in West 7.2 mph 13.2 mph 64 % 0 in
17:40 79.7 °F 68 °F 29.7 in West 5.6 mph 10.5 mph 66 % 0 in
17:45 78.8 °F 68 °F 29.7 in Calm   9.8 mph 67 % 0 in
17:50 78.3 °F 68 °F 29.7 in Calm   6.3 mph 69 % 0 in
17:55 77.9 °F 68 °F 29.7 in Calm   2.7 mph 71 % 0 in
18:00 77.5 °F 69.8 °F 29.7 in Calm   2.7 mph 75 % 0 in
18:05 77.4 °F 69.8 °F 29.7 in Calm     76 % 0 in
18:10 77.5 °F 69.8 °F 29.7 in Calm     78 % 0 in
18:16 77.9 °F 71.6 °F 29.7 in Calm     77 % 0 in
18:21 78.3 °F 71.6 °F 29.7 in Calm     78 % 0 in
18:26 78.6 °F 71.6 °F 29.7 in Calm     79 % 0 in
18:31 78.8 °F 71.6 °F 29.7 in Calm     79 % 0 in
18:36 78.8 °F 71.6 °F 29.7 in Calm   1.3 mph 78 % 0 in
18:37 79 °F 71.6 °F 29.7 in Calm   1.3 mph 78 % 0 in
18:42 78.8 °F 71.6 °F 29.7 in Calm   1.3 mph 77 % 0 in
18:47 78.4 °F 71.6 °F 29.7 in West 2 mph 4 mph 77 % 0 in
18:52 78.1 °F 69.8 °F 29.7 in West 3.4 mph 4.7 mph 76 % 0 in
18:58 77.7 °F 69.8 °F 29.7 in WSW 4.7 mph 4.9 mph 74 % 0 in
19:03 77.4 °F 68 °F 29.7 in NW 3.1 mph 8.1 mph 72 % 0 in
19:08 77.2 °F 68 °F 29.7 in WNW 4 mph 8.1 mph 72 % 0 in
19:13 77 °F 66.2 °F 29.7 in West 3.8 mph 8.1 mph 70 % 0 in
19:18 76.8 °F 66.2 °F 29.7 in NNW 3.4 mph 10.5 mph 70 % 0 in
19:23 76.6 °F 66.2 °F 29.7 in West 5.6 mph 13.2 mph 70 % 0 in
19:28 76.5 °F 66.2 °F 29.7 in WNW 4.9 mph 13.2 mph 69 % 0 in
19:33 76.3 °F 66.2 °F 29.7 in West 10.5 mph 10.5 mph 69 % 0 in
19:38 76.1 °F 66.2 °F 29.7 in West 11.4 mph 13.6 mph 69 % 0 in
19:43 75.9 °F 64.4 °F 29.7 in West 7.2 mph 13.6 mph 68 % 0.01 in
19:48 75.7 °F 64.4 °F 29.7 in West 9.8 mph 12.8 mph 67 % 0.01 in
19:53 75.6 °F 64.4 °F 29.7 in WSW 7.2 mph 10.7 mph 68 % 0.01 in
19:58 75.4 °F 64.4 °F 29.7 in WSW 7.8 mph 10.7 mph 68 % 0.01 in
20:03 75.4 °F 64.4 °F 29.7 in West 8.1 mph 10.7 mph 68 % 0.01 in
20:08 75.2 °F 64.4 °F 29.7 in NW 5.4 mph 10.1 mph 68 % 0.01 in
20:13 74.8 °F 64.4 °F 29.7 in West 8.5 mph 13 mph 68 % 0.01 in
20:18 74.5 °F 64.4 °F 29.7 in West 10.7 mph 13 mph 68 % 0.01 in
20:23 74.3 °F 64.4 °F 29.7 in WSW 6.9 mph 12.8 mph 68 % 0.01 in
20:28 74.3 °F 64.4 °F 29.7 in WSW 6.9 mph 12.1 mph 69 % 0.01 in
20:33 74.1 °F 62.6 °F 29.7 in WSW 5.4 mph 8.7 mph 69 % 0.01 in
20:36 74.1 °F 62.6 °F 29.7 in West 4.7 mph 10.3 mph 69 % 0.01 in
20:41 73.9 °F 62.6 °F 29.7 in NW 4.9 mph 10.3 mph 69 % 0.01 in
20:46 73.8 °F 64.4 °F 29.7 in West 5.4 mph 8.7 mph 70 % 0 in
20:51 73.6 °F 62.6 °F 29.7 in West 4.3 mph 8.7 mph 70 % 0 in
20:56 73.6 °F 62.6 °F 29.8 in West 4.9 mph 8.5 mph 70 % 0 in
21:01 73.4 °F 62.6 °F 29.8 in West 2.2 mph 8.5 mph 70 % 0 in
21:06 73.4 °F 62.6 °F 29.8 in West 1.1 mph 6 mph 70 % 0 in
21:11 73.2 °F 64.4 °F 29.7 in West 4.9 mph 5.4 mph 71 % 0 in
21:16 73 °F 62.6 °F 29.7 in West 2.9 mph 5.4 mph 71 % 0 in
21:22 72.7 °F 64.4 °F 29.7 in West 2.2 mph 4.9 mph 72 % 0 in
21:27 72.5 °F 64.4 °F 29.8 in Calm   4.3 mph 73 % 0 in
21:32 72.3 °F 62.6 °F 29.8 in Calm   2.2 mph 73 % 0 in
21:37 72 °F 64.4 °F 29.8 in Calm     74 % 0 in
21:42 71.6 °F 62.6 °F 29.8 in Calm     74 % 0 in
21:47 71.2 °F 62.6 °F 29.8 in Calm     76 % 0 in
21:52 70.9 °F 62.6 °F 29.8 in Calm     76 % 0 in
21:57 70.5 °F 62.6 °F 29.8 in Calm     77 % 0 in
22:02 70.3 °F 62.6 °F 29.8 in Calm     78 % 0 in
22:07 70 °F 62.6 °F 29.8 in Calm     78 % 0 in
22:12 69.6 °F 62.6 °F 29.8 in Calm     79 % 0 in
22:17 69.3 °F 62.6 °F 29.8 in Calm     80 % 0 in
22:22 68.9 °F 62.6 °F 29.8 in Calm     80 % 0 in
22:27 68.5 °F 62.6 °F 29.7 in Calm     80 % 0 in
22:32 68.2 °F 62.6 °F 29.7 in Calm     81 % 0 in
22:37 68 °F 62.6 °F 29.7 in Calm     82 % 0 in
22:42 67.8 °F 62.6 °F 29.8 in Calm     83 % 0 in
22:47 67.6 °F 62.6 °F 29.8 in Calm     83 % 0 in
22:52 67.5 °F 62.6 °F 29.8 in Calm     84 % 0 in
22:57 67.3 °F 62.6 °F 29.8 in Calm     84 % 0 in
23:02 67.3 °F 62.6 °F 29.8 in Calm     85 % 0 in
23:07 67.1 °F 62.6 °F 29.8 in Calm     85 % 0 in
23:12 67.1 °F 62.6 °F 29.8 in Calm     86 % 0 in
23:17 67.1 °F 62.6 °F 29.8 in Calm     86 % 0 in
23:22 67.1 °F 62.6 °F 29.8 in Calm     86 % 0 in
23:27 67.1 °F 64.4 °F 29.8 in Calm     87 % 0 in
23:32 67.1 °F 64.4 °F 29.8 in Calm     87 % 0 in
23:38 66.9 °F 62.6 °F 29.8 in Calm     88 % 0 in
23:39 66.9 °F 62.6 °F 29.8 in Calm     88 % 0 in
23:44 66.9 °F 62.6 °F 29.7 in Calm     88 % 0 in
23:49 66.7 °F 62.6 °F 29.7 in Calm     88 % 0 in
23:54 66.6 °F 62.6 °F 29.7 in Calm     88 % 0 in
23:59 66.6 °F 62.6 °F 29.8 in Calm     88 % 0 in
Le Gheer Warneton
Courtoisie de Weather Underground - 2.25 mb

Mise a jour : 17-12-17 07:17:12
Généré par Cumulus 1.9.4 (1099)